Flag for New Zealand Weather past 2 weeks in Christchurch, New Zealand

Now
68 °F

Overcast.


Feels Like: 68 °F
Forecast: 59 / 72 °F
Wind: 7 mph from Southwest

Location: Christchurch Airport

Current Time: Mar 4, 2015 at 11:57:35 AM

Latest Report: Mar 4, 2015 at 11:30 AM


Visibility: N/A

Pressure: 29.86 "Hg

Humidity: 69%

Dew point: 57 °F

Location of ChristchurchLocation

Historic Weather in Christchurch — Graph

°F

Christchurch temperature yesterday

Maximum temperature yesterday: 66 °F (at 12:00 PM)
Minimum temperature yesterday: 57 °F (at 6:00 AM)
Average temperature yesterday: 62 °F

Past Weeks' High & Low Weather Summary

 TemperatureHumidityPressure
High86 °F (Mar 2, 1:00 PM)100% (Feb 18, 8:00 AM)30.33 "Hg (Feb 18, 8:00 AM)
Low45 °F (Feb 27, 3:00 AM)25% (Mar 2, 1:00 PM)29.77 "Hg (Feb 25, 6:00 AM)
Average63 °F77%30.03 "Hg
* Reported Feb 17 10:00 AM — Mar 4 10:30 AM, Christchurch, Weather by CustomWeather, © 2015

Note: Actual official high and low records may vary slightly from our data, if they occured in-between our weather recording intervals... More about our weather records

Advertising

Christchurch weather history for previous 24 hours

 ConditionsComfort  
Time TempWeatherWind HumidityBarometerVisibility
10:30 AM
Wed, Mar 4
66 °FOvercast.6 mph73%29.86 "HgN/A
10:00 AM64 °FMostly cloudy.3 mph83%29.86 "HgN/A
9:30 AM63 °FPartly sunny.2 mph88%29.86 "HgN/A
9:00 AM61 °FMore clouds than sun.2 mph94%29.86 "HgN/A
8:30 AM59 °FMostly cloudy.3 mph100%29.86 "HgN/A
8:00 AM59 °FPartly sunny.1 mph94%29.86 "HgN/A
7:30 AM59 °FScattered clouds.5 mph94%29.86 "HgN/A
7:00 AM59 °FPassing clouds.5 mph94%29.86 "HgN/A
6:30 AM59 °FCool.6 mph94%29.86 "HgN/A
6:00 AM59 °FPassing clouds.8 mph94%29.83 "HgN/A
5:30 AM61 °FOvercast.6 mph88%29.83 "HgN/A
5:00 AM61 °FOvercast.5 mph88%29.86 "HgN/A
4:30 AM61 °FOvercast.6 mph88%29.86 "HgN/A
4:00 AM61 °FOvercast.6 mph88%29.86 "HgN/A
3:30 AM59 °FOvercast.7 mph94%29.86 "HgN/A
3:00 AM61 °FPassing clouds.2 mph88%29.86 "HgN/A
2:30 AM61 °FOvercast.5 mph88%29.86 "HgN/A
2:00 AM63 °FOvercast.5 mph83%29.89 "HgN/A
1:30 AM63 °FOvercast.7 mph83%29.89 "HgN/A
1:00 AM63 °FOvercast.6 mph88%29.89 "HgN/A
12:30 AM63 °FOvercast.7 mph88%29.89 "HgN/A
12:00 AM63 °FOvercast.8 mph88%29.89 "HgN/A
11:30 PM
Tue, Mar 3
63 °FOvercast.8 mph88%29.89 "HgN/A
11:00 PM63 °FOvercast.8 mph88%29.89 "HgN/A
10:30 PM63 °FOvercast.9 mph88%29.89 "HgN/A
10:00 PM63 °FOvercast.8 mph88%29.89 "HgN/A
9:30 PM63 °FPassing clouds.10 mph88%29.89 "HgN/A
9:00 PM63 °FOvercast.13 mph88%29.89 "HgN/A
8:30 PM63 °FOvercast.10 mph83%29.89 "HgN/A
8:00 PM63 °FOvercast.10 mph83%29.89 "HgN/A
7:30 PM63 °FOvercast.13 mph83%29.89 "HgN/A
7:00 PM63 °FOvercast.15 mph83%29.89 "HgN/A
6:30 PM63 °FOvercast.15 mph83%29.89 "HgN/A
6:00 PM63 °FOvercast.16 mph83%29.89 "HgN/A
5:30 PM63 °FOvercast.17 mph83%29.89 "HgN/A
5:00 PM63 °FOvercast.17 mph77%29.89 "HgN/A
4:30 PM63 °FPartly sunny.18 mph77%29.92 "HgN/A
4:00 PM63 °FOvercast.17 mph77%29.92 "HgN/A
3:30 PM64 °FOvercast.16 mph73%29.92 "HgN/A
3:00 PM64 °FOvercast.16 mph73%29.95 "HgN/A
2:30 PM64 °FOvercast.15 mph73%29.95 "HgN/A
2:00 PM64 °FPartly sunny.15 mph73%29.98 "HgN/A
1:30 PM66 °FPartly sunny.13 mph68%29.98 "HgN/A
1:00 PM66 °FOvercast.15 mph68%29.98 "HgN/A
12:30 PM66 °FPartly sunny.15 mph68%29.98 "HgN/A
12:00 PM66 °FPartly sunny.14 mph73%30.01 "HgN/A
11:30 AM64 °FPartly sunny.12 mph78%30.01 "HgN/A
11:00 AM64 °FPartly sunny.10 mph78%30.01 "HgN/A
Weather by CustomWeather, © 2015

See weather overviewHow to use our weather pages